Wind_Speed
19 19 18 18 18 19 19 18 18 19 19 19 19 19 19 19 19 19 20 20 21 21 21 20 21 22 22 22 22 22 23 23 22 23 23 23 23 23 23 23 23 22 22
21 21 20 19 20 20 20 20 20 20 20 20 20 19 19 20 20 20 21 21 22 22 22 22 22 22 22 23 23 23 23 24 23 23 25 25 24 24 24 23 23 23 23
22 21 21 20 20 20 20 20 20 20 20 20 20 21 21 21 21 22 22 22 22 23 23 23 23 24 23 23 23 23 23 23 24 24 25 25 25 24 24 24 25 24 23
22 21 21 21 21 21 21 20 20 20 20 21 21 22 22 23 23 23 23 23 24 24 24 24 24 24 24 24 23 22 22 22 23 24 24 24 24 24 25 25 24 24 23
22 22 21 22 22 22 22 21 22 22 22 22 22 22 23 24 24 24 24 24 24 24 24 24 24 24 23 24 24 23 23 23 24 24 23 23 23 24 24 24 23 23 23
23 23 23 22 22 22 22 22 22 23 23 23 23 23 24 25 26 25 25 26 26 25 25 25 25 24 23 24 24 24 24 24 24 23 22 22 23 23 24 23 23 23 23
23 23 24 24 24 23 23 24 24 23 24 24 24 25 25 26 27 26 26 26 26 25 25 25 24 24 24 24 24 25 24 24 23 23 22 22 23 23 23 23 23 23 22
24 24 24 24 24 24 24 25 25 25 25 25 26 26 26 27 27 27 28 27 26 25 25 25 25 25 25 25 25 25 24 24 24 23 23 23 22 22 23 23 23 24 23
25 24 24 25 25 25 26 26 26 26 27 27 27 27 27 27 27 27 27 27 27 26 25 25 26 26 26 26 26 26 25 24 23 24 24 23 23 24 24 24 24 24 24
26 25 25 26 26 26 27 27 27 27 27 28 28 28 28 28 27 27 27 27 26 26 26 26 26 27 26 26 26 26 26 25 25 24 24 24 24 24 23 23 23 24 24
27 28 28 28 27 27 28 28 28 27 27 27 27 27 27 27 27 27 27 26 26 27 27 27 27 27 26 26 26 26 26 26 25 25 25 25 24 24 24 24 24 25 25
28 29 29 29 29 28 28 28 27 27 27 28 27 27 27 26 26 26 26 26 27 27 26 26 26 25 25 25 26 26 26 27 26 25 25 25 25 24 24 24 25 24 25
29 29 29 29 29 29 29 29 28 28 28 27 27 27 27 26 26 26 26 26 26 27 26 26 26 26 25 25 26 26 27 26 24 25 25 25 26 26 26 25 24 25 25
29 29 29 29 29 29 29 28 28 28 28 28 27 27 27 26 26 26 26 26 26 26 26 26 26 25 25 25 25 26 25 24 24 24 24 25 25 25 26 25 24 24 25
30 30 30 29 29 29 29 29 28 28 28 28 27 27 27 26 26 27 26 26 26 26 26 26 25 25 25 25 25 25 24 23 23 23 23 23 24 25 25 25 25 25 25
31 31 30 29 29 29 29 29 28 28 28 28 27 27 27 27 27 27 27 27 26 26 26 26 26 25 24 24 23 23 22 22 22 22 23 24 24 25 24 24 24 24 24
32 31 30 30 30 30 30 29 29 29 29 28 28 27 27 27 27 27 27 27 27 26 26 26 26 25 24 23 23 23 22 22 22 22 22 23 23 24 24 24 24 23 24
32 32 31 31 31 31 30 30 30 29 28 28 28 28 27 27 27 27 27 27 27 27 26 25 24 24 24 23 23 23 23 23 23 22 22 22 23 23 23 23 23 23 23
32 32 32 32 31 31 31 30 29 29 28 28 28 28 28 27 27 26 26 27 28 27 27 25 24 24 24 23 23 23 23 22 22 22 22 22 23 23 23 23 23 23 24
30 30 31 31 31 30 29 28 28 28 28 28 27 28 27 27 26 26 26 27 28 28 27 26 24 23 23 23 23 23 22 22 22 22 22 22 23 24 24 24 24 25 24
29 29 29 29 29 29 28 28 27 27 27 27 27 26 25 25 25 25 26 27 27 26 25 24 23 24 24 24 23 22 23 23 23 23 23 23 23 23 24 24 25 25 24
28 28 28 28 28 28 28 27 26 26 25 25 24 24 24 24 24 24 25 24 24 24 23 23 23 23 24 25 24 24 24 24 24 24 24 25 24 24 24 24 24 25 24
26 26 26 25 25 25 25 25 25 25 25 25 25 25 25 24 24 24 24 24 24 23 23 22 22 22 23 23 23 23 23 24 23 23 24 24 24 24 24 24 24 24 24
24 25 24 24 24 24 23 23 24 24 24 24 25 24 24 24 24 24 24 23 22 22 22 23 22 22 22 23 23 24 24 24 24 24 24 24 24 23 22 23 23 23 23
23 23 23 22 22 22 22 23 23 23 23 23 24 24 24 23 23 22 22 22 22 22 22 22 22 22 22 22 23 23 23 23 23 23 23 22 23 22 22 21 22 22 23
22 22 22 21 20 21 22 22 22 22 22 22 23 22 22 22 21 21 20 21 22 22 22 22 22 22 22 21 22 22 22 22 23 23 22 22 23 23 23 22 22 22 23
Wind_Direction
300 298 298 299 299 298 297 294 291 289 290 291 292 294 295 295 294 295 296 295 294 294 293 291 289 288 287 285 284 283 281 281 279 278 278 276 274 274 275 275 274 275 274
298 297 297 297 298 299 296 294 293 291 289 289 290 291 293 293 294 294 294 294 294 294 293 292 290 289 288 288 286 283 282 281 280 279 279 278 275 272 271 272 274 274 273
296 297 297 297 298 298 296 293 293 292 290 289 290 291 291 293 293 294 293 293 294 294 294 293 292 290 288 286 286 285 284 282 280 280 281 280 278 274 272 272 273 275 272
295 296 295 294 295 296 295 294 291 290 289 288 289 292 291 291 291 291 292 291 291 294 295 294 292 290 288 287 287 286 285 284 282 280 280 280 279 276 274 273 273 274 271
293 293 292 293 294 294 293 294 292 290 288 287 287 289 291 291 290 291 292 292 291 291 292 292 291 290 289 286 288 287 285 284 283 282 280 279 278 276 276 275 274 273 270
292 292 292 291 292 293 292 293 292 290 289 288 288 289 289 289 290 292 292 291 290 289 287 288 289 288 286 285 286 286 286 283 281 280 278 276 275 275 275 274 274 273 270
292 291 292 291 291 292 292 292 291 291 290 289 288 289 289 288 289 290 291 291 290 288 286 286 285 285 284 284 284 285 284 283 282 280 277 275 273 273 273 273 273 271 269
291 290 290 291 292 292 293 292 291 291 292 290 289 288 288 288 289 291 291 291 291 287 286 285 283 283 283 283 282 282 281 281 281 280 278 276 274 274 274 273 274 272 268
289 289 289 291 292 293 293 293 292 292 291 290 289 288 289 288 289 290 291 291 290 288 286 285 283 283 284 282 281 281 279 279 279 278 277 276 274 273 273 273 273 272 269
288 289 290 291 292 293 293 293 293 292 290 289 288 288 288 287 288 289 291 291 290 289 286 285 285 283 282 282 281 280 280 279 279 278 275 274 273 273 273 273 272 269 269
287 288 289 290 290 291 292 293 293 292 291 290 288 288 288 287 286 287 289 289 290 290 288 286 286 285 283 282 280 279 280 280 277 275 274 273 273 273 273 272 272 270 268
287 287 288 288 288 289 290 291 291 290 291 291 289 289 289 288 287 287 289 289 289 289 290 290 287 284 282 281 280 279 281 282 278 276 274 274 273 273 273 272 271 270 270
287 288 288 288 288 288 289 290 290 290 290 289 288 289 288 288 289 289 288 290 290 289 289 289 287 283 281 282 282 281 281 282 280 276 273 273 273 271 272 272 271 270 272
288 289 289 288 288 288 288 290 290 290 289 288 288 288 288 288 288 290 290 292 291 290 289 289 288 285 283 283 284 284 281 279 279 278 275 274 272 271 269 270 271 272 272
288 290 291 291 290 290 290 290 290 290 290 288 286 286 285 285 287 289 291 292 292 289 289 287 287 286 284 284 283 282 280 280 280 279 276 274 273 272 271 269 270 272 271
286 288 289 290 291 291 290 289 288 289 289 288 287 284 283 283 285 287 289 289 290 289 287 287 286 286 287 286 284 280 278 279 281 279 276 274 273 272 271 270 271 271 271
285 286 287 288 289 289 289 287 286 286 286 286 286 285 284 283 283 285 286 287 288 289 286 285 284 284 285 285 283 281 279 280 281 279 277 275 273 272 271 270 271 271 270
284 286 287 287 287 288 288 286 285 284 284 284 286 285 284 284 284 284 284 284 286 287 287 286 285 284 283 282 282 282 281 280 280 278 275 275 273 272 271 271 271 272 270
284 284 285 285 285 285 287 286 285 284 283 283 284 284 285 284 285 285 284 285 286 286 286 285 284 282 281 281 282 281 282 281 280 279 278 277 273 272 273 274 274 273 272
284 284 285 285 285 284 285 285 285 285 283 283 283 284 284 284 284 285 284 285 286 285 285 285 283 279 279 280 281 281 280 280 281 280 278 277 275 275 275 274 274 274 273
284 285 285 285 285 284 284 284 284 285 285 284 283 286 285 282 282 283 283 283 285 285 284 284 282 279 279 279 280 280 281 280 279 278 276 276 276 277 277 275 272 272 273
285 284 284 285 285 284 283 282 282 283 284 285 286 288 288 284 281 282 284 285 284 284 282 281 283 282 279 278 278 280 280 280 279 278 277 277 277 277 277 276 274 273 273
285 285 284 284 285 286 284 282 282 283 284 284 285 288 288 286 283 281 282 284 283 282 281 281 283 284 282 281 280 280 281 281 281 280 279 278 279 279 278 277 276 275 273
286 285 284 284 283 282 284 284 284 285 285 286 285 287 288 286 284 282 282 281 281 282 283 282 282 283 283 283 283 282 281 281 281 281 280 278 278 279 279 278 276 274 274
288 288 286 284 282 282 282 282 282 285 285 285 286 287 288 287 286 285 282 281 282 283 284 284 284 284 284 284 285 284 284 284 282 280 280 279 277 277 279 278 276 276 276
288 288 287 285 283 283 285 285 285 285 286 285 287 288 287 287 286 286 285 284 284 283 283 285 286 285 284 285 286 285 285 285 285 283 280 277 277 277 278 278 277 277 277
Height
5862 5861 5859 5858 5857 5855 5854 5853 5852 5851 5850 5849 5848 5847 5846 5844 5843 5842 5841 5841 5839 5838 5837 5836 5835 5834 5833 5833 5832 5831 5831 5830 5830 5829 5828 5829 5829 5829 5829 5829 5829 5829 5830
5857 5856 5855 5853 5852 5851 5850 5848 5847 5846 5845 5844 5843 5842 5841 5840 5839 5837 5836 5835 5834 5833 5832 5831 5829 5828 5827 5826 5826 5825 5824 5824 5823 5823 5822 5821 5821 5822 5822 5822 5822 5823 5823
5853 5851 5850 5848 5847 5846 5845 5843 5842 5841 5840 5839 5838 5837 5835 5834 5833 5832 5831 5829 5828 5827 5826 5825 5823 5822 5821 5820 5819 5818 5818 5817 5817 5816 5815 5814 5814 5814 5815 5815 5815 5815 5816
5847 5846 5845 5843 5842 5841 5839 5838 5837 5835 5834 5833 5832 5831 5830 5828 5827 5826 5825 5824 5822 5821 5820 5819 5817 5816 5814 5813 5813 5812 5811 5810 5810 5809 5808 5808 5808 5808 5808 5808 5808 5808 5809
5842 5841 5840 5838 5837 5835 5834 5832 5831 5830 5828 5827 5826 5825 5824 5822 5821 5820 5818 5817 5816 5815 5813 5812 5811 5809 5808 5807 5806 5805 5804 5803 5802 5802 5801 5801 5801 5801 5801 5801 5802 5802 5802
5837 5835 5834 5832 5831 5830 5828 5827 5825 5824 5822 5821 5820 5819 5818 5816 5815 5813 5812 5810 5809 5808 5807 5806 5805 5803 5802 5801 5800 5799 5798 5797 5795 5795 5794 5794 5794 5794 5794 5794 5795 5795 5796
5831 5830 5828 5827 5825 5824 5822 5821 5819 5818 5816 5814 5813 5812 5811 5810 5808 5806 5805 5803 5802 5801 5800 5799 5798 5796 5795 5794 5793 5792 5791 5790 5789 5788 5787 5787 5787 5787 5787 5787 5788 5788 5789
5826 5824 5822 5821 5819 5818 5816 5814 5813 5811 5810 5808 5806 5805 5804 5802 5801 5799 5798 5796 5795 5794 5793 5792 5790 5789 5788 5787 5786 5785 5784 5783 5782 5781 5780 5780 5780 5780 5780 5780 5781 5781 5782
5820 5818 5816 5815 5813 5811 5810 5808 5806 5804 5802 5801 5799 5798 5797 5795 5793 5792 5790 5789 5788 5787 5786 5784 5783 5782 5781 5780 5779 5777 5776 5775 5774 5773 5773 5773 5773 5773 5773 5773 5774 5775 5776
5813 5812 5810 5808 5806 5805 5803 5801 5799 5797 5795 5793 5792 5791 5789 5788 5786 5785 5783 5782 5781 5780 5778 5777 5776 5774 5773 5772 5771 5770 5769 5768 5767 5766 5766 5766 5765 5766 5766 5766 5767 5768 5768
5806 5804 5803 5801 5799 5797 5795 5793 5791 5789 5788 5786 5784 5783 5782 5780 5779 5777 5776 5774 5773 5772 5770 5769 5768 5766 5766 5764 5763 5763 5762 5761 5759 5759 5759 5759 5759 5759 5759 5760 5760 5760 5761
5798 5797 5795 5793 5791 5789 5788 5786 5784 5782 5780 5778 5777 5776 5774 5773 5771 5770 5768 5766 5765 5764 5763 5761 5760 5759 5758 5757 5756 5755 5754 5753 5752 5752 5752 5752 5752 5752 5752 5752 5753 5753 5753
5790 5789 5787 5785 5783 5781 5780 5778 5776 5774 5773 5771 5769 5768 5767 5765 5764 5762 5761 5759 5757 5756 5755 5754 5752 5751 5750 5750 5748 5747 5746 5745 5744 5744 5744 5744 5744 5744 5744 5745 5745 5746 5746
5782 5780 5779 5777 5775 5773 5772 5770 5768 5767 5765 5763 5762 5760 5759 5758 5756 5755 5753 5752 5750 5748 5747 5746 5745 5743 5742 5742 5740 5739 5738 5737 5737 5736 5736 5736 5736 5736 5737 5737 5738 5738 5739
5774 5772 5771 5769 5767 5765 5764 5762 5760 5759 5757 5755 5754 5752 5751 5750 5749 5748 5746 5744 5743 5741 5739 5738 5737 5736 5735 5733 5732 5731 5730 5729 5729 5728 5728 5728 5728 5729 5729 5730 5730 5730 5731
5766 5764 5762 5761 5759 5757 5755 5754 5752 5751 5749 5747 5745 5744 5743 5742 5741 5740 5739 5737 5735 5733 5732 5731 5730 5728 5727 5725 5724 5723 5722 5722 5721 5721 5721 5721 5721 5721 5722 5722 5723 5723 5723
5757 5755 5754 5752 5750 5749 5747 5745 5744 5743 5741 5739 5738 5736 5735 5734 5733 5732 5731 5729 5727 5726 5725 5723 5722 5720 5718 5718 5717 5716 5715 5715 5714 5714 5713 5713 5713 5714 5714 5715 5716 5716 5716
5747 5746 5745 5743 5742 5740 5739 5737 5735 5734 5733 5731 5730 5728 5727 5726 5725 5724 5722 5721 5720 5719 5717 5716 5714 5713 5712 5711 5710 5709 5708 5708 5707 5707 5707 5706 5707 5707 5707 5708 5708 5708 5709
5738 5737 5736 5734 5732 5731 5730 5728 5726 5726 5725 5723 5722 5721 5719 5718 5716 5715 5714 5713 5712 5711 5709 5708 5707 5706 5704 5704 5703 5702 5702 5701 5700 5700 5700 5700 5700 5700 5700 5701 5701 5701 5701
5729 5728 5727 5725 5723 5722 5721 5720 5718 5717 5716 5715 5714 5713 5711 5710 5708 5707 5707 5705 5704 5703 5702 5701 5699 5698 5698 5697 5696 5695 5695 5694 5693 5693 5693 5693 5693 5693 5693 5693 5693 5693 5694
5720 5719 5718 5716 5715 5714 5713 5712 5711 5709 5708 5707 5706 5705 5703 5701 5700 5699 5699 5698 5696 5695 5694 5693 5692 5691 5691 5690 5689 5688 5688 5687 5686 5686 5686 5686 5685 5685 5685 5685 5686 5686 5686
5712 5711 5709 5708 5707 5705 5704 5704 5703 5702 5701 5699 5698 5696 5694 5693 5692 5692 5691 5690 5689 5688 5687 5686 5685 5684 5684 5683 5682 5681 5681 5680 5679 5679 5678 5678 5678 5678 5678 5678 5678 5678 5678
5703 5702 5701 5700 5699 5698 5697 5696 5695 5694 5693 5692 5690 5689 5688 5687 5686 5685 5684 5683 5682 5681 5680 5679 5679 5678 5677 5676 5675 5675 5674 5673 5672 5671 5671 5671 5670 5670 5670 5670 5670 5670 5670
5696 5695 5694 5693 5692 5691 5690 5689 5688 5688 5686 5685 5684 5683 5681 5680 5679 5678 5677 5675 5675 5674 5673 5672 5672 5671 5670 5669 5668 5668 5667 5666 5665 5664 5663 5663 5663 5662 5662 5662 5662 5662 5662
5689 5688 5687 5685 5685 5684 5684 5683 5682 5681 5680 5678 5677 5676 5674 5673 5672 5671 5670 5669 5669 5668 5667 5666 5665 5664 5663 5662 5661 5660 5660 5659 5657 5656 5656 5655 5655 5655 5654 5654 5654 5654 5654
5683 5681 5680 5679 5679 5678 5677 5676 5675 5674 5673 5672 5671 5669 5668 5667 5666 5665 5664 5663 5662 5661 5660 5659 5658 5657 5656 5655 5654 5653 5652 5651 5650 5649 5648 5648 5648 5648 5647 5647 5647 5647 5647